• Processing (Info)

  • MPEC 2024-P84 : 2024 PM1

    The following Minor Planet Electronic Circular may be linked-to from your own Web pages, but must not otherwise be redistributed electronically.

    A form allowing access to any MPEC is at the bottom of this page.


    Read MPEC 2024-P83 Read MPEC 2024-P85


    M.P.E.C. 2024-P84                                Issued 2024 August 7, 00:04 UT
    
         The Minor Planet Electronic Circulars contain information on unusual
             minor planets, routine data on comets and natural satellites,
             and occasional editorial announcements.  They are published
        on behalf of Division F of the International Astronomical Union by the
              Minor Planet Center, Smithsonian Astrophysical Observatory,
                              Cambridge, MA 02138, U.S.A.
    			  
                 Prepared using the Tamkin Foundation Computer Network
    
                                  MPC@CFA.HARVARD.EDU
                URL https://www.minorplanetcenter.net/    ISSN 1523-6714
    
                                    2024 PM1                                 
    
    
    Observations:
         K24P01M* C2024 08 05.36667921 33 07.422+18 39 25.22         20.86wXEP084F52
         K24P01M  C2024 08 05.37931121 33 08.889+18 38 33.24         21.63wXEP084F52
         K24P01M  C2024 08 05.40453621 33 11.773+18 36 49.51         21.42wXEP084F52
         K24P01M  C2024 08 05.48304421 33 20.578+18 31 24.98         21.95GVEP084F52
         K24P01M  C2024 08 05.48369821 33 20.665+18 31 21.87         21.07GVEP084F52
         K24P01M  C2024 08 05.48435421 33 20.704+18 31 19.88         21.23GVEP084F52
         K24P01M KB2024 08 06.19306 21 34 55.836+17 42 48.85         21.1 GVEP084734
         K24P01M KB2024 08 06.21545 21 34 58.394+17 41 20.22         21.0 GVEP084734
         K24P01M KC2024 08 06.28451121 35 05.41 +17 36 44.8          21.2 GVEP084H21
         K24P01M KC2024 08 06.28593321 35 05.57 +17 36 39.1          21.4 GVEP084H21
         K24P01M KC2024 08 06.29019821 35 06.04 +17 36 22.2          21.4 GVEP084H21
         K24P01M KC2024 08 06.30271321 35 07.38 +17 35 31.8          21.3 GVEP084H21
         K24P01M KC2024 08 06.31676121 35 09.897+17 34 40.93         21.5 GVEP084H01
         K24P01M KC2024 08 06.32268621 35 10.521+17 34 17.60         21.5 GVEP084H01
         K24P01M KC2024 08 06.33059021 35 11.353+17 33 45.94         21.4 GVEP084H01
         K24P01M KC2024 08 06.33928621 35 12.270+17 33 11.26         21.7 GVEP084H01
         K24P01M KC2024 08 06.97604221 36 30.75 +16 51 16.9          21.6 GXEP084L01
         K24P01M KC2024 08 06.98066621 36 31.30 +16 50 59.3                XEP084L01
         K24P01M KC2024 08 06.98414421 36 31.63 +16 50 45.4                XEP084L01
    
    Observer details:
    734 Farpoint Observatory, Eskridge.  Observers D. Cromer, G. Hug, D. Goodin,
        R. Valentine, P. Lessig.  Measurer G. Hug.  0.69-m f/3.54 reflector + CMO.
    F52 Pan-STARRS 2, Haleakala.  Observers J. Herman, T. Lowe, P. Minguez, A.
        Schultz, I. Smith.  Measurers K. Chambers, T. de Boer, J. Fairlamb, H.
        Gao, M. Huber, C.-C. Lin, E. Magnier, Y. Ramanjooloo, R. Wainscoat, R.
        Weryk.  1.8-m Ritchey-Chretien + CCD.
    H01 Magdalena Ridge Observatory, Socorro.  Observers W. H. Ryan, E. V. Ryan.
        Measurer W. H. Ryan.  2.4-m f/8.9 Ritchey-Chretien + CCD.
    H21 Astronomical Research Observatory, Westfield.  Observer R. Holmes.
        Measurers T. Linder, R. Holmes.  1.3-m f/4.0 astrograph + CCD.
    L01 Visnjan Observatory, Tican.  Observers K. Korlevic, L. Ivanovic, E.
        Matika, I. Novotny, I. Paleka, E. Pettarin, M. Spoler.  Measurer I.
        Paleka.  1.0-m f/2.9 reflector + CCD.
    
    Orbital elements:
    2024 PM1                                                 Earth MOID = 0.0675 AU
    Epoch 2024 Oct. 17.0 TT = JDT 2460600.5                 Veres                   
    M  31.37393              (2000.0)            P               Q                  
    n   0.27032316     Peri.   73.79568     -0.07036064     +0.99736571             
    a   2.3689026      Node   192.21025     -0.94410583     -0.07229035             
    e   0.5792308      Incl.    4.78317     -0.32204590     -0.00597910             
    P   3.65           H   23.99          G   0.15           U   9                  
    Residuals in seconds of arc
    240805 F52  0.0   0.0     240806 734  0.4+  0.2-    240806 H01  0.0   0.1+
    240805 F52  0.0   0.1-    240806 H21  0.2-  0.1-    240806 H01  0.0   0.1+
    240805 F52  0.0   0.0     240806 H21  0.1-  0.1-    240806 L01  0.3-  0.0
    240805 F52  0.2+  0.4+    240806 H21  0.1+  0.1+    240806 L01  0.8+  0.4+
    240805 F52  0.4+  0.0     240806 H21  0.0   0.1-    240806 L01  0.4+  0.1-
    240805 F52  0.1-  0.8+    240806 H01  0.1+  0.1-
    240806 734  0.7-  0.5-    240806 H01  0.0   0.2+
    
    Ephemeris:
    2024 PM1                 a,e,i = 2.37, 0.58, 5                   q = 0.9968
    Date    TT    R. A. (2000) Decl.     Delta      r    Elong.  Phase     V
    2024 07 08    15 35 19.7 +59 36 09   0.08866 1.0160    87.0    88.0    21.9
    ...
    2024 07 23    20 32 24.3 +39 44 06   0.1017  1.0703   120.0    55.3    21.2
    ...
    2024 07 31    21 17 33.2 +25 40 52   0.1298  1.1110   135.2    40.1    21.4
    ...
    2024 08 06    21 34 29.3 +17 56 13   0.1569  1.1458   144.6    30.9    21.6
    2024 08 07    21 36 33.4 +16 50 13   0.1618  1.1519   146.0    29.5    21.6
    2024 08 08    21 38 27.9 +15 47 02   0.1668  1.1581   147.4    28.1    21.7
    ...
    2024 08 14    21 47 19.3 +10 19 36   0.1994  1.1968   155.1    20.9    21.9
    ...
    2024 08 22    21 54 46.9 +04 50 26   0.2492  1.2520   163.2    13.5    22.2
    ...
    2024 09 06    22 03 33.1 -01 50 01   0.3639  1.3632   165.3    10.8    23.1
    
    M. P. C. Staff               (C) Copyright 2024 MPC           M.P.E.C. 2024-P84
    


    Read MPEC 2024-P83 Read MPEC 2024-P85


    MPEC number:

    Enter an MPEC number in one of the following forms:

    • 1997-B01 (the full form)
    • J97B01 (the packed version of the full form)
    • B01 (the abbreviated form)